Regional Weather Roundup
Issued by NWS

Home | Current Version | Previous Version | Graphics & Text | Print | Product List | Glossary On
Versions: 1 2 3 4 5 6 7 8 9 10 11 12 13 14 15 16 17 18 19 20 21 22 23 24 25 26 27 28 29 30 31 32 33 34 35 36 37 38 39 40 41 42 43 44 45 46 47 48 49 50
000
ASUS45 KTFX 271819
RWRMT
MONTANA HOURLY WEATHER ROUNDUP
NATIONAL WEATHER SERVICE GREAT FALLS MT
1219 PM MDT FRI MAR 27 2015

NOTE: "FAIR" INDICATES FEW OR NO CLOUDS BELOW 12000 FEET WITH NO
SIGNIFICANT WEATHER AND/OR OBSTRUCTIONS TO VISIBILITY.

* THESE STATIONS ARE NOT UNDER NWS QUALITY CONTROL. THEY DO NOT
   REPORT WEATHER SUCH AS PRECIPITATION OR FOG.

MTZ001>007-043-271900-
WEST OF THE DIVIDE
CITY           SKY/WX    TMP DP  RH WIND       PRES   REMARKS
KALISPELL      SUNNY     52  43  72 VRB3      30.14F
MISSOULA       SUNNY     50  39  66 CALM      30.18F
BUTTE          PTCLDY    57  34  42 NW5       30.19F
MULLAN PASS    SUNNY     50  37  61 VRB5      30.17F
* ESSEX        N/A       49  39  69 W2         N/A
* EUREKA APT   SUNNY     61  41  48 S8        30.09F
* HAMILTON APT SUNNY     57  39  51 N2        30.15F
* LIBBY APT    SUNNY     50  39  66 CALM      30.13F
* LINCOLN      N/A       43  37  79 NW1        N/A
* LOOKOUT PASS N/A       53  43  69 SE3        N/A
* POLSON       N/A       51  45  80 SE1        N/A
* SEELEY LAKE  N/A       53  39  59 S1         N/A
* THOMP F APT  SUNNY     49  34  56 SE5G11     N/A
$$

MTZ008-052>055-271900-
SOUTHWEST MONTANA
CITY           SKY/WX    TMP DP  RH WIND       PRES   REMARKS
BOZEMAN        PTCLDY    63  34  34 N3        30.16F
DILLON         SUNNY     63  30  29 SW18      30.16F
* W YELLOWSTON SUNNY     51  34  52 S5         N/A
* BOULDER HILL N/A       58  30  35 S12        N/A
* HOMESTAKE PS N/A       53  33  47 W4G9       N/A
* MONIDA PASS  N/A       47  33  58 SE20G26    N/A
* RAYNOLDS PAS N/A       44  27  51 S19G24     N/A
* WHITEHALL    N/A       62  37  40 SW13G20    N/A
* WISE RIVER   N/A       47  35  63 SW4G9      N/A
$$

MTZ009>010-012-014-046-048-049-054-271900-
EAST SLOPES AND CENTRAL MONTANA
CITY           SKY/WX    TMP DP  RH WIND       PRES   REMARKS
CUT BANK       CLOUDY    61  34  36 W30G37    30.00F
GREAT FALLS    PTCLDY    68  28  22 W21       30.03F
HELENA         PTSUNNY   61  36  39 NE5       30.13F
* CONRAD       CLOUDY    63  34  34 S6         N/A
* DEARBORN     N/A       62  36  38 S12G20     N/A
* EAST GLACIER N/A       48  36  63 W22G30     N/A
* MONARCH      N/A       59  21  23 W23G28     N/A
* PENDROY      N/A       62  22  21 NW12G18    N/A
* ROGERS PASS  N/A       48  35  61 E10G22     N/A
* SAINT MARY   N/A       52  32  47 SW11G22    N/A
* WHITE SULPH  N/A       63  33  33 NW14G22    N/A
$$

MTZ011-013-016-021-035-040-045-047-050-051-271900-
NORTH CENTRAL MONTANA
CITY           SKY/WX    TMP DP  RH WIND       PRES   REMARKS
HAVRE          PTSUNNY   66  36  33 W8        29.96F
LEWISTOWN      SUNNY     66  34  31 W10       30.04F
* N BAR RANCH  SUNNY     64  27  25 NW16G23   30.05F
* CHINOOK      PTSUNNY   63  34  34 W15G21    29.96F
* FORT BENTON  PTSUNNY   72  28  19 SW15G24   29.99F
* CHESTER      N/A       64  30  28 W17G28     N/A
* DENTON       N/A       66  31  27 W12G19     N/A
* GEYSER       N/A       66  27  23 W19G29     N/A
* JUDITH GAP   N/A       65  30  27 NW14G21    N/A
* LOMA         N/A       63  32  31 SW9        N/A
$$

MTZ017>020-022>027-061-062-271900-
NORTHEAST MONTANA
CITY           SKY/WX    TMP DP  RH WIND       PRES   REMARKS
GLASGOW        PTSUNNY   59  37  44 W8        29.95F
GLENDIVE       PTCLDY    63  37  38 NW12      29.96S
JORDAN         CLOUDY    63  37  38 NW16      29.98S
SIDNEY         PTCLDY    59  36  42 NW14      29.93S
WOLF POINT     PTCLDY    63  39  41 SW9       29.94F
* BEAVER HILL  N/A       58  36  44 W14        N/A
* CIRCLE       N/A       59  41  51 W12        N/A
* LINDSAY DVD  N/A       58  37  46 W12G17     N/A
* NAVAJO       N/A       49  37  63 NW11G17    N/A
* PLENTYWOOD A PTSUNNY   54  37  53 NW16G21   29.92S
* POPLAR APT   PTCLDY    61  39  44 S6        29.94F
* SACO         N/A       58  39  49 W5         N/A
$$

MTZ028>042-056>058-271900-
SOUTHCENTRAL AND SOUTHEAST MONTANA
CITY           SKY/WX    TMP DP  RH WIND       PRES   REMARKS
BAKER          CLOUDY    59  39  48 NW16      29.97F
BILLINGS       PTCLDY    72  30  21 W21G29    30.03F
LIVINGSTON     PTCLDY    66  34  31 SW22G29   30.12F
MILES CITY     PTCLDY    64  37  37 N15       29.98F
* BIG TIMBER A PTCLDY    63  30  29 W26G39    30.09F
* FORSYTH APT  PTCLDY    66  36  33 W18G24    29.99F
* ALZADA       N/A       62  39  43 W13G21     N/A
* HYSHAM       N/A       63  34  34 W8         N/A
* LAME DEER    N/A       58  33  39 NW15G24    N/A
* REED POINT   N/A       68  33  27 W21G33     N/A
* ROSCOE HILL  N/A       67   8  10 W8G14      N/A
$$

REGIONAL REPORTS...DAKOTAS
CITY           SKY/WX    TMP DP  RH WIND       PRES   REMARKS
WILLISTON      CLOUDY    55  34  45 NW12      29.92S
DICKINSON      PTCLDY    61  36  39 W18       29.88F
BEACH          SUNNY     59  36  42 NW20G25   29.94F
CROSBY         SUNNY     50  37  61 NW16G21   29.90R
TIOGA          SUNNY     46  37  71 W15       29.92S
WATFORD CITY   SUNNY     50  36  59 NW13      29.90S
BISMARCK       CLOUDY    34  28  79 S13       29.99F WCI  25
GRAND FORKS    CLOUDY    30  12  47 S12       30.14F WCI  20
FARGO          CLOUDY    34   9  35 S14       30.16F WCI  24
BUFFALO SD     PTSUNNY   57  37  47 NW26G31   29.89F
RAPID CITY     PTCLDY    64  37  37 N24G38    29.96F
$$

REGIONAL REPORTS...WYOMING/IDAHO/WASHINGTON
CITY           SKY/WX    TMP DP  RH WIND       PRES   REMARKS
GILLETTE       SUNNY     61  36  39 NW22G31   30.05F
SHERIDAN       SUNNY     66  32  28 NW23G32   30.05F
CODY           SUNNY     64  28  26 W15G24    30.13F
YELLOWSTONE LA SUNNY     41  30  65 E6        30.34F
SALMON         SUNNY    N/A N/A N/A N6        30.20F
MULLAN PASS    SUNNY     50  37  61 VRB5      30.17S
SAND POINT     PTCLDY    45  45 100 E5        30.12F
SPOKANE        FOG       46  46 100 NE6       30.09F VSB 3
$$

REGIONAL REPORTS...ALBERTA
CITY           SKY/WX    TMP DP  RH WIND       PRES   REMARKS
CALGARY        PTSUNNY   57  25  29 SW3       29.91S
LETHBRIDGE     PTSUNNY   59  34  39 W22G31    29.96S
MEDICINE HAT   PTSUNNY   64  37  37 W12       29.93S
EDMONTON       PTSUNNY   48  36  63 SE13      29.87F
WATERTON GATE  N/A       54  34  47 SW10G18    N/A
CARDSTON       N/A       57  34  42 W16G25     N/A
MILK RIVER     N/A       63  28  27 W23G29     N/A
$$

REGIONAL REPORTS...SASKATCHEWAN
CITY           SKY/WX    TMP DP  RH WIND       PRES   REMARKS
SWIFT CURRENT  SUNNY     59  39  48 W12       29.89F
MOOSE JAW      PTSUNNY   54  39  57 W12       29.91F
REGINA         PTSUNNY   45  37  74 W10       29.89F
VAL MARIE      N/A       63  37  38 SW8        N/A
ASSINIBOIA     N/A       55  36  49 NW10       N/A
CORONACH       N/A       57  37  47 W10        N/A

$$



USA.gov is the U.S. government's official web portal to all federal, state and local government web resources and services.